Regional Weather Roundup
Issued by NWS Binghamton, NY

Home | Current Version | Previous Version | Text Only | Print | Product List | Glossary On
Versions: 1 2 3 4 5 6 7 8 9 10 11 12 13 14 15 16 17 18 19 20 21 22 23 24 25 26 27 28 29 30 31 32 33 34 35 36 37 38 39 40 41 42 43 44 45 46 47 48 49 50
000
ASUS41 KBGM 271410
RWRBGM
RWRBGM
BINGHAMTON REGIONAL WEATHER ROUNDUP
NATIONAL WEATHER SERVICE BINGHAMTON NY
900 AM EST TUE JAN 27 2015

Note: "fair" indicates few or no clouds below 12,000 feet with no
significant weather and/or obstructions to visibility.

* = Station(s) that does not report precipitation, such as rain,
snow, etc, also no thunder or fog.

!NYZ009-015>018-022>025-036-037-044>046-055>057-062-271500
...CENTRAL NEW YORK...

CITY           SKY/WX    TMP DP  RH WIND       PRES   REMARKS
BINGHAMTON     MOSUNNY   13   6  74 NW12      29.75S WCI  -1
CORTLAND       FLURRIES  12  10  92 CALM      29.85R
DANSVILLE      LGT SNOW  14  10  84 NW15      29.96R FOG     WCI  -1
ELMIRA         PTSUNNY   18  12  77 VRB5      29.87R WCI  11
ITHACA         CLOUDY    11   7  84 N13       29.87R WCI  -4
HAMILTON       SUNNY     12   7  79 N7        29.83  WCI   2
MONTICELLO     CLOUDY    16   0  48 NW10G17   29.70R WCI   3
NORWICH        CLOUDY    12   5  73 N7        29.82F WCI   2
ONEONTA        SUNNY     12   1  62 N5        29.73S WCI   4
PENN YAN       LGT SNOW  15   9  76 N9        29.91S WCI   3
ROME           PTSUNNY    7  -3  64 N8        29.92S WCI  -6
SIDNEY         CLOUDY    18   7  62 N5        29.81S WCI  11
SYRACUSE       PTSUNNY    4  -2  76 NW10      29.94R WCI -11
$$

!PAZ038>040-043-044-047-048-072-271500
...NORTHEAST PENNSYLVANIA...

CITY           SKY/WX    TMP DP  RH WIND       PRES   REMARKS
HAZLETON       CLOUDY    19  14  79 NW14G20   29.74R WCI   6
SCRANTON       CLOUDY    19   6  57 N12       29.78R WCI   7
TOWANDA*       CLOUDY    19  10  68 NW7       29.86S WCI  10
$$
&&
KEY
WCI = WIND CHILL INDEX
VSB = VISIBILITY
HX  = HEAT INDEX
$$



USA.gov is the U.S. government's official web portal to all federal, state and local government web resources and services.